Time,TemperatureF,DewpointF,PressureIn,WindDirection,WindDirectionDegrees,WindSpeedMPH,WindSpeedGustMPH,Humidity,HourlyPrecipIn,Conditions,Clouds,dailyrainin,SoftwareType,DateUTC
2013-03-31 00:04:00,33.0,27.5,29.96,NNW,330,0.0,0.0,80,0.00,CLR,,0.00,WeatherDisplay:10.37,2013-03-31 00:04:00,
2013-03-31 00:09:00,32.8,27.3,29.96,NNW,328,0.0,0.0,80,0.00,CLR,,0.00,WeatherDisplay:10.37,2013-03-31 00:09:00,
2013-03-31 00:14:00,32.6,27.4,29.96,NNW,348,0.0,0.0,81,0.00,CLR,,0.00,WeatherDisplay:10.37,2013-03-31 00:14:00,
2013-03-31 00:19:00,32.5,27.3,29.96,NNW,348,0.0,0.0,81,0.00,CLR,,0.00,WeatherDisplay:10.37,2013-03-31 00:19:00,
2013-03-31 00:24:00,32.3,27.1,29.96,North,349,0.0,0.0,81,0.00,CLR,,0.00,WeatherDisplay:10.37,2013-03-31 00:24:00,
2013-03-31 00:29:00,32.0,26.8,29.96,NNW,348,0.0,0.0,81,0.00,CLR,,0.00,WeatherDisplay:10.37,2013-03-31 00:29:00,
2013-03-31 00:34:00,31.8,26.9,29.96,NNW,348,0.0,0.0,82,0.00,CLR,,0.00,WeatherDisplay:10.37,2013-03-31 00:34:00,
2013-03-31 00:39:00,31.6,26.7,29.97,North,349,0.0,0.0,82,0.00,CLR,,0.00,WeatherDisplay:10.37,2013-03-31 00:39:00,
2013-03-31 00:44:00,31.5,26.9,29.96,NNW,337,0.0,0.0,83,0.00,CLR,,0.00,WeatherDisplay:10.37,2013-03-31 00:44:00,
2013-03-31 00:49:00,31.2,26.3,29.97,NNW,337,0.0,0.0,82,0.00,CLR,,0.00,WeatherDisplay:10.37,2013-03-31 00:49:00,
2013-03-31 00:54:00,31.0,26.4,29.97,NNW,337,0.0,0.0,83,0.00,CLR,,0.00,WeatherDisplay:10.37,2013-03-31 00:54:00,
2013-03-31 00:59:00,30.8,26.5,29.97,NNW,337,0.0,0.0,84,0.00,CLR,,0.00,WeatherDisplay:10.37,2013-03-31 00:59:00,
2013-03-31 02:04:00,30.5,26.2,29.97,NNW,337,0.0,0.0,84,0.00,CLR,,0.00,WeatherDisplay:10.37,2013-03-31 01:04:00,
2013-03-31 02:09:00,30.2,25.9,29.97,NNW,337,0.0,0.0,84,0.00,CLR,,0.00,WeatherDisplay:10.37,2013-03-31 01:09:00,
2013-03-31 02:14:00,29.7,25.5,29.96,NNW,337,0.0,0.0,84,0.00,CLR,,0.00,WeatherDisplay:10.37,2013-03-31 01:14:00,
2013-03-31 02:19:00,29.5,25.8,29.96,NNW,338,0.0,0.0,86,0.00,CLR,,0.00,WeatherDisplay:10.37,2013-03-31 01:19:00,
2013-03-31 02:24:00,29.5,25.8,29.96,NNW,337,0.0,0.0,86,0.00,CLR,,0.00,WeatherDisplay:10.37,2013-03-31 01:24:00,
2013-03-31 02:29:00,29.6,26.2,29.96,NNW,337,0.0,0.0,87,0.00,CLR,,0.00,WeatherDisplay:10.37,2013-03-31 01:29:00,
2013-03-31 02:34:00,29.4,26.0,29.96,NNW,337,0.0,0.0,87,0.00,CLR,,0.00,WeatherDisplay:10.37,2013-03-31 01:34:00,
2013-03-31 02:39:00,29.3,25.9,29.97,NNW,337,0.0,0.0,87,0.00,CLR,,0.00,WeatherDisplay:10.37,2013-03-31 01:39:00,
2013-03-31 02:44:00,29.2,25.8,29.96,NNW,337,0.0,0.0,87,0.00,CLR,,0.00,WeatherDisplay:10.37,2013-03-31 01:44:00,
2013-03-31 02:49:00,28.8,25.4,29.97,NNW,337,0.0,0.0,87,0.00,CLR,,0.00,WeatherDisplay:10.37,2013-03-31 01:49:00,
2013-03-31 02:54:00,28.8,25.7,29.97,NNW,337,0.0,0.0,88,0.00,CLR,,0.00,WeatherDisplay:10.37,2013-03-31 01:54:00,
2013-03-31 02:59:00,28.8,26.0,29.97,NNW,337,0.0,0.0,89,0.00,CLR,,0.00,WeatherDisplay:10.37,2013-03-31 01:59:00,
2013-03-31 03:04:00,28.8,25.7,29.97,NNW,337,0.0,0.0,88,0.00,CLR,,0.00,WeatherDisplay:10.37,2013-03-31 02:04:00,
2013-03-31 03:09:00,28.5,25.4,29.97,NNW,338,0.0,0.0,88,0.00,CLR,,0.00,WeatherDisplay:10.37,2013-03-31 02:09:00,
2013-03-31 03:14:00,28.2,25.1,29.97,NNW,337,0.0,0.0,88,0.00,CLR,,0.00,WeatherDisplay:10.37,2013-03-31 02:14:00,
2013-03-31 03:19:00,27.8,24.7,29.97,NNW,337,0.0,0.0,88,0.00,CLR,,0.00,WeatherDisplay:10.37,2013-03-31 02:19:00,
2013-03-31 03:24:00,27.4,24.3,29.97,NNW,337,0.0,0.0,88,0.00,CLR,,0.00,WeatherDisplay:10.37,2013-03-31 02:24:00,
2013-03-31 03:29:00,27.3,24.5,29.97,NNW,337,0.0,0.0,89,0.00,CLR,,0.00,WeatherDisplay:10.37,2013-03-31 02:29:00,
2013-03-31 03:34:00,27.5,25.0,29.97,NNW,337,0.0,0.0,90,0.00,CLR,,0.00,WeatherDisplay:10.37,2013-03-31 02:34:00,
2013-03-31 03:39:00,27.3,24.8,29.97,NNW,337,0.0,0.0,90,0.00,CLR,,0.00,WeatherDisplay:10.37,2013-03-31 02:39:00,
2013-03-31 03:44:00,27.0,24.5,29.97,NNW,338,0.0,0.0,90,0.00,CLR,,0.00,WeatherDisplay:10.37,2013-03-31 02:44:00,
2013-03-31 03:49:00,26.9,24.4,29.97,NNW,337,0.0,0.0,90,0.00,CLR,,0.00,WeatherDisplay:10.37,2013-03-31 02:49:00,
2013-03-31 03:54:00,26.8,24.3,29.97,NNW,338,0.0,0.0,90,0.00,CLR,,0.00,WeatherDisplay:10.37,2013-03-31 02:54:00,
2013-03-31 03:59:00,26.7,24.2,29.97,NNW,337,0.0,0.0,90,0.00,CLR,,0.00,WeatherDisplay:10.37,2013-03-31 02:59:00,
2013-03-31 04:04:00,26.6,24.3,29.97,NNW,337,0.0,0.0,91,0.00,CLR,,0.00,WeatherDisplay:10.37,2013-03-31 03:04:00,
2013-03-31 04:09:00,26.9,24.9,29.97,NNW,337,0.0,0.0,92,0.00,CLR,,0.00,WeatherDisplay:10.37,2013-03-31 03:09:00,
2013-03-31 04:14:00,27.0,25.0,29.97,NNW,337,0.0,0.0,92,0.00,CLR,,0.00,WeatherDisplay:10.37,2013-03-31 03:14:00,
2013-03-31 04:19:00,27.1,25.1,29.97,NNW,337,0.0,0.0,92,0.00,CLR,,0.00,WeatherDisplay:10.37,2013-03-31 03:19:00,
2013-03-31 04:24:00,27.1,25.1,29.97,NNW,338,0.0,0.0,92,0.00,CLR,,0.00,WeatherDisplay:10.37,2013-03-31 03:24:00,
2013-03-31 04:29:00,27.1,25.1,29.97,NNW,338,0.0,0.0,92,0.00,CLR,,0.00,WeatherDisplay:10.37,2013-03-31 03:29:00,
2013-03-31 04:34:00,27.0,25.0,29.97,NNW,337,0.0,0.0,92,0.00,CLR,,0.00,WeatherDisplay:10.37,2013-03-31 03:34:00,
2013-03-31 04:39:00,27.0,25.0,29.97,NNW,338,0.0,0.0,92,0.00,CLR,,0.00,WeatherDisplay:10.37,2013-03-31 03:39:00,
2013-03-31 04:44:00,27.0,25.0,29.97,NNW,338,0.0,0.0,92,0.00,CLR,,0.00,WeatherDisplay:10.37,2013-03-31 03:44:00,
2013-03-31 04:49:00,26.9,24.9,29.97,NNW,337,0.0,0.0,92,0.00,CLR,,0.00,WeatherDisplay:10.37,2013-03-31 03:49:00,
2013-03-31 04:54:00,26.8,24.8,29.97,NNW,337,0.0,0.0,92,0.00,CLR,,0.00,WeatherDisplay:10.37,2013-03-31 03:54:00,
2013-03-31 04:59:00,26.8,24.8,29.97,NNW,337,0.0,0.0,92,0.00,CLR,,0.00,WeatherDisplay:10.37,2013-03-31 03:59:00,
2013-03-31 05:00:00,26.7,24.7,29.97,NNW,338,0.0,0.0,92,0.00,CLR,,0.00,WeatherDisplay:10.37,2013-03-31 04:00:00,
2013-03-31 05:05:00,26.7,24.7,29.97,NNW,337,0.0,0.0,92,0.00,CLR,,0.00,WeatherDisplay:10.37,2013-03-31 04:05:00,
2013-03-31 05:10:00,26.7,24.9,29.97,NNW,338,0.0,0.0,93,0.00,CLR,,0.00,WeatherDisplay:10.37,2013-03-31 04:10:00,
2013-03-31 05:15:00,26.9,25.1,29.97,NNW,337,0.0,0.0,93,0.00,CLR,,0.00,WeatherDisplay:10.37,2013-03-31 04:15:00,
2013-03-31 05:20:00,26.8,25.0,29.97,NNW,337,0.0,0.0,93,0.00,CLR,,0.00,WeatherDisplay:10.37,2013-03-31 04:20:00,
2013-03-31 05:25:00,26.9,25.1,29.97,NNW,337,0.0,0.0,93,0.00,CLR,,0.00,WeatherDisplay:10.37,2013-03-31 04:25:00,
2013-03-31 05:30:00,26.9,25.1,29.97,NNW,337,0.0,0.0,93,0.00,CLR,,0.00,WeatherDisplay:10.37,2013-03-31 04:30:00,
2013-03-31 05:35:00,26.9,25.1,29.96,NNW,338,0.0,0.0,93,0.00,CLR,,0.00,WeatherDisplay:10.37,2013-03-31 04:35:00,
2013-03-31 05:40:00,27.0,25.2,29.96,NNW,337,0.0,0.0,93,0.00,CLR,,0.00,WeatherDisplay:10.37,2013-03-31 04:40:00,
2013-03-31 05:45:00,27.1,25.3,29.97,NNW,337,0.0,0.0,93,0.00,CLR,,0.00,WeatherDisplay:10.37,2013-03-31 04:45:00,
2013-03-31 05:50:00,27.1,25.3,29.97,NNW,337,0.0,0.0,93,0.00,CLR,,0.00,WeatherDisplay:10.37,2013-03-31 04:50:00,
2013-03-31 05:55:00,27.0,25.2,29.97,NNW,337,0.0,0.0,93,0.00,CLR,,0.00,WeatherDisplay:10.37,2013-03-31 04:55:00,
2013-03-31 06:00:00,26.8,25.0,29.97,NNW,338,0.0,0.0,93,0.00,CLR,,0.00,WeatherDisplay:10.37,2013-03-31 05:00:00,
2013-03-31 06:05:00,26.6,24.8,29.97,NNW,337,0.0,0.0,93,0.00,CLR,,0.00,WeatherDisplay:10.37,2013-03-31 05:05:00,
2013-03-31 06:10:00,26.6,24.8,29.97,NNW,337,0.0,0.0,93,0.00,CLR,,0.00,WeatherDisplay:10.37,2013-03-31 05:10:00,
2013-03-31 06:15:00,26.5,24.8,29.97,NNW,337,0.0,0.0,93,0.00,CLR,,0.00,WeatherDisplay:10.37,2013-03-31 05:15:00,
2013-03-31 06:20:00,26.3,24.6,29.97,NNW,337,0.0,0.0,93,0.00,CLR,,0.00,WeatherDisplay:10.37,2013-03-31 05:20:00,
2013-03-31 06:25:00,26.3,24.6,29.97,NNW,337,0.0,0.0,93,0.00,CLR,,0.00,WeatherDisplay:10.37,2013-03-31 05:25:00,
2013-03-31 06:30:00,26.4,24.7,29.97,NNW,338,0.0,0.0,93,0.00,CLR,,0.00,WeatherDisplay:10.37,2013-03-31 05:30:00,
2013-03-31 06:35:00,26.4,24.7,29.97,NNW,337,0.0,0.0,93,0.00,CLR,,0.00,WeatherDisplay:10.37,2013-03-31 05:35:00,
2013-03-31 06:40:00,26.4,24.7,29.97,NNW,337,0.0,0.0,93,0.00,CLR,,0.00,WeatherDisplay:10.37,2013-03-31 05:40:00,
2013-03-31 06:45:00,26.4,24.7,29.97,NNW,337,0.0,0.0,93,0.00,CLR,,0.00,WeatherDisplay:10.37,2013-03-31 05:45:00,
2013-03-31 06:50:00,26.2,24.5,29.97,NNW,337,0.0,0.0,93,0.00,CLR,,0.00,WeatherDisplay:10.37,2013-03-31 05:50:00,
2013-03-31 06:55:00,26.0,24.3,29.97,NNW,337,0.0,0.0,93,0.00,CLR,,0.00,WeatherDisplay:10.37,2013-03-31 05:55:00,
2013-03-31 07:00:00,26.3,24.8,29.97,NNW,337,0.0,0.0,94,0.00,CLR,,0.00,WeatherDisplay:10.37,2013-03-31 06:00:00,
2013-03-31 07:05:00,26.4,24.9,29.97,NNW,337,0.0,0.0,94,0.00,CLR,,0.00,WeatherDisplay:10.37,2013-03-31 06:05:00,
2013-03-31 07:10:00,26.7,25.2,29.97,NNW,337,0.0,0.0,94,0.00,CLR,,0.00,WeatherDisplay:10.37,2013-03-31 06:10:00,
2013-03-31 07:15:00,26.8,25.3,29.97,NNW,338,0.0,0.0,94,0.00,CLR,,0.00,WeatherDisplay:10.37,2013-03-31 06:15:00,
2013-03-31 07:20:00,26.9,25.4,29.97,NNW,337,0.0,0.0,94,0.00,CLR,,0.00,WeatherDisplay:10.37,2013-03-31 06:20:00,
2013-03-31 07:25:00,27.0,25.5,29.97,NNW,337,0.0,0.0,94,0.00,CLR,,0.00,WeatherDisplay:10.37,2013-03-31 06:25:00,
2013-03-31 07:30:00,27.2,25.7,29.97,NNW,337,0.0,0.0,94,0.00,CLR,,0.00,WeatherDisplay:10.37,2013-03-31 06:30:00,
2013-03-31 07:35:00,27.5,26.0,29.97,NNW,337,0.0,0.0,94,0.00,CLR,,0.00,WeatherDisplay:10.37,2013-03-31 06:35:00,
2013-03-31 07:40:00,27.9,26.4,29.97,NNW,337,0.0,0.0,94,0.00,CLR,,0.00,WeatherDisplay:10.37,2013-03-31 06:40:00,
2013-03-31 07:45:00,28.2,26.7,29.97,NW,326,0.0,0.0,94,0.00,CLR,,0.00,WeatherDisplay:10.37,2013-03-31 06:45:00,
2013-03-31 07:50:00,28.6,27.1,29.97,NW,326,0.0,0.0,94,0.00,CLR,,0.00,WeatherDisplay:10.37,2013-03-31 06:50:00,
2013-03-31 07:55:00,29.0,27.2,29.97,NW,326,0.0,0.0,93,0.00,CLR,,0.00,WeatherDisplay:10.37,2013-03-31 06:55:00,
2013-03-31 08:00:00,29.4,27.6,29.97,NW,326,0.0,0.0,93,0.00,CLR,,0.00,WeatherDisplay:10.37,2013-03-31 07:00:00,
2013-03-31 08:05:00,29.9,28.1,29.97,North,360,0.0,0.0,93,0.00,CLR,,0.00,WeatherDisplay:10.37,2013-03-31 07:05:00,
2013-03-31 08:10:00,30.5,28.5,29.97,SSE,165,0.0,0.0,92,0.00,CLR,,0.00,WeatherDisplay:10.37,2013-03-31 07:10:00,
2013-03-31 08:15:00,31.0,28.7,29.97,ENE,76,0.0,0.0,91,0.00,CLR,,0.00,WeatherDisplay:10.37,2013-03-31 07:15:00,
2013-03-31 08:20:00,31.5,28.6,29.97,NE,46,0.0,0.0,89,0.00,CLR,,0.00,WeatherDisplay:10.37,2013-03-31 07:20:00,
2013-03-31 08:25:00,32.0,28.8,29.97,SE,145,0.0,0.0,88,0.00,CLR,,0.00,WeatherDisplay:10.37,2013-03-31 07:25:00,
2013-03-31 08:30:00,32.4,29.0,29.97,NNE,29,0.0,0.0,87,0.00,CLR,,0.00,WeatherDisplay:10.37,2013-03-31 07:30:00,
2013-03-31 08:35:00,33.0,29.3,29.97,SE,134,2.3,2.3,86,0.00,CLR,,0.00,WeatherDisplay:10.37,2013-03-31 07:35:00,
2013-03-31 08:40:00,33.5,29.5,29.97,East,82,2.0,0.0,85,0.00,CLR,,0.00,WeatherDisplay:10.37,2013-03-31 07:40:00,
2013-03-31 08:45:00,34.0,29.7,29.97,NNE,22,3.0,3.0,84,0.00,CLR,,0.00,WeatherDisplay:10.37,2013-03-31 07:45:00,
2013-03-31 08:50:00,34.4,29.8,29.97,NW,309,1.1,1.1,83,0.00,CLR,,0.00,WeatherDisplay:10.37,2013-03-31 07:50:00,
2013-03-31 08:55:00,35.0,30.1,29.97,ESE,120,2.3,2.3,82,0.00,CLR,,0.00,WeatherDisplay:10.37,2013-03-31 07:55:00,
2013-03-31 09:00:00,35.5,29.9,29.97,NW,306,1.1,1.1,80,0.00,CLR,,0.00,WeatherDisplay:10.37,2013-03-31 08:00:00,
2013-03-31 09:05:00,35.8,30.2,29.97,ENE,61,2.3,2.3,80,0.00,CLR,,0.00,WeatherDisplay:10.37,2013-03-31 08:05:00,
2013-03-31 09:10:00,36.7,30.8,29.97,ESE,117,1.1,0.0,79,0.00,CLR,,0.00,WeatherDisplay:10.37,2013-03-31 08:10:00,
2013-03-31 09:15:00,37.4,30.5,29.97,East,100,3.5,3.5,76,0.00,CLR,,0.00,WeatherDisplay:10.37,2013-03-31 08:15:00,
2013-03-31 09:20:00,37.7,30.2,29.97,NE,52,1.1,1.1,74,0.00,CLR,,0.00,WeatherDisplay:10.37,2013-03-31 08:20:00,
2013-03-31 09:25:00,38.5,30.9,29.97,East,98,0.0,0.0,74,0.00,CLR,,0.00,WeatherDisplay:10.37,2013-03-31 08:25:00,
2013-03-31 09:30:00,39.3,31.0,29.97,ENE,63,1.0,1.0,72,0.00,CLR,,0.00,WeatherDisplay:10.37,2013-03-31 08:30:00,
2013-03-31 09:35:00,39.4,30.1,29.97,NE,46,2.3,2.3,69,0.00,CLR,,0.00,WeatherDisplay:10.37,2013-03-31 08:35:00,
2013-03-31 09:40:00,39.5,29.8,29.97,SW,215,9.2,9.2,68,0.00,CLR,,0.00,WeatherDisplay:10.37,2013-03-31 08:40:00,
2013-03-31 09:45:00,39.7,30.0,29.97,SE,132,3.5,3.5,68,0.00,CLR,,0.00,WeatherDisplay:10.37,2013-03-31 08:45:00,
2013-03-31 09:50:00,40.2,30.1,29.97,WNW,294,2.3,2.3,67,0.00,CLR,,0.00,WeatherDisplay:10.37,2013-03-31 08:50:00,
2013-03-31 09:55:00,40.4,29.2,29.97,East,98,2.3,2.3,64,0.00,CLR,,0.00,WeatherDisplay:10.37,2013-03-31 08:55:00,
2013-03-31 10:00:00,40.7,28.7,29.97,WNW,292,3.5,3.5,62,0.00,CLR,,0.00,WeatherDisplay:10.37,2013-03-31 09:00:00,
2013-03-31 10:05:00,41.2,28.8,29.97,WSW,248,2.3,2.3,61,0.00,CLR,,0.00,WeatherDisplay:10.37,2013-03-31 09:05:00,
2013-03-31 10:10:00,41.4,28.9,29.97,NE,51,2.0,2.0,61,0.00,CLR,,0.00,WeatherDisplay:10.37,2013-03-31 09:10:00,
2013-03-31 10:15:00,41.7,28.8,29.97,ESE,105,1.1,1.1,60,0.00,CLR,,0.00,WeatherDisplay:10.37,2013-03-31 09:15:00,
2013-03-31 10:20:00,41.8,29.3,29.97,SE,134,0.0,0.4,61,0.00,CLR,,0.00,WeatherDisplay:10.37,2013-03-31 09:20:00,
2013-03-31 10:25:00,41.8,28.1,29.97,SE,132,2.3,2.3,58,0.00,CLR,,0.00,WeatherDisplay:10.37,2013-03-31 09:25:00,
2013-03-31 10:30:00,41.7,28.0,29.97,SE,139,4.6,4.6,58,0.00,CLR,,0.00,WeatherDisplay:10.37,2013-03-31 09:30:00,
2013-03-31 10:35:00,41.1,28.3,29.97,ESE,114,1.1,1.1,60,0.00,CLR,,0.00,WeatherDisplay:10.37,2013-03-31 09:35:00,
2013-03-31 10:40:00,41.3,27.2,29.97,WNW,285,9.2,9.2,57,0.00,CLR,,0.00,WeatherDisplay:10.37,2013-03-31 09:40:00,
2013-03-31 10:45:00,41.4,26.9,29.97,ENE,75,2.3,0.0,56,0.00,CLR,,0.00,WeatherDisplay:10.37,2013-03-31 09:45:00,
2013-03-31 10:50:00,41.0,26.5,29.97,SSE,148,1.1,1.1,56,0.00,CLR,,0.00,WeatherDisplay:10.37,2013-03-31 09:50:00,
2013-03-31 10:55:00,41.0,26.1,29.97,ENE,66,3.5,3.5,55,0.00,CLR,,0.00,WeatherDisplay:10.37,2013-03-31 09:55:00,
2013-03-31 11:00:00,42.0,27.4,29.97,ENE,71,3.5,3.5,56,0.00,CLR,,0.00,WeatherDisplay:10.37,2013-03-31 10:00:00,
2013-03-31 11:05:00,42.7,26.7,29.97,ESE,113,3.5,3.5,53,0.00,CLR,,0.00,WeatherDisplay:10.37,2013-03-31 10:05:00,
2013-03-31 11:10:00,43.6,27.1,29.97,ESE,104,3.5,3.5,52,0.00,CLR,,0.00,WeatherDisplay:10.37,2013-03-31 10:10:00,
2013-03-31 11:15:00,43.5,27.5,29.96,SE,124,3.5,3.5,53,0.00,CLR,,0.00,WeatherDisplay:10.37,2013-03-31 10:15:00,
2013-03-31 11:20:00,43.5,25.6,29.96,SE,145,4.6,4.6,49,0.00,CLR,,0.00,WeatherDisplay:10.37,2013-03-31 10:20:00,
2013-03-31 11:25:00,42.5,26.1,29.96,ESE,103,3.5,3.5,52,0.00,CLR,,0.00,WeatherDisplay:10.37,2013-03-31 10:25:00,
2013-03-31 11:30:00,42.1,27.1,29.96,West,279,3.0,3.0,55,0.00,CLR,,0.00,WeatherDisplay:10.37,2013-03-31 10:30:00,
2013-03-31 11:35:00,41.5,26.5,29.96,ENE,68,3.5,3.5,55,0.00,CLR,,0.00,WeatherDisplay:10.37,2013-03-31 10:35:00,
2013-03-31 11:40:00,41.2,26.7,29.96,ENE,72,2.0,2.0,56,0.00,CLR,,0.00,WeatherDisplay:10.37,2013-03-31 10:40:00,
2013-03-31 11:45:00,41.0,26.5,29.96,ESE,112,3.5,3.5,56,0.00,CLR,,0.00,WeatherDisplay:10.37,2013-03-31 10:45:00,
2013-03-31 11:50:00,40.9,26.4,29.96,SSW,193,2.3,2.3,56,0.00,CLR,,0.00,WeatherDisplay:10.37,2013-03-31 10:50:00,
2013-03-31 11:55:00,40.9,26.8,29.96,ESE,113,3.5,3.5,57,0.00,CLR,,0.00,WeatherDisplay:10.37,2013-03-31 10:55:00,
2013-03-31 12:00:00,40.6,27.4,29.96,North,359,1.1,1.1,59,0.00,CLR,,0.00,WeatherDisplay:10.37,2013-03-31 11:00:00,
2013-03-31 12:05:00,40.6,27.4,29.96,ESE,115,1.1,1.1,59,0.00,CLR,,0.00,WeatherDisplay:10.37,2013-03-31 11:05:00,
2013-03-31 12:10:00,40.7,27.5,29.96,ESE,123,3.5,3.5,59,0.00,CLR,,0.00,WeatherDisplay:10.37,2013-03-31 11:10:00,
2013-03-31 12:15:00,40.6,27.8,29.96,East,84,2.3,2.3,60,0.00,CLR,,0.00,WeatherDisplay:10.37,2013-03-31 11:15:00,
2013-03-31 12:20:00,40.7,27.5,29.96,SW,228,3.5,3.5,59,0.00,CLR,,0.00,WeatherDisplay:10.37,2013-03-31 11:20:00,
2013-03-31 12:25:00,40.3,27.5,29.96,ESE,105,2.3,2.3,60,0.00,CLR,,0.00,WeatherDisplay:10.37,2013-03-31 11:25:00,
2013-03-31 12:30:00,40.7,27.9,29.96,SE,134,4.0,4.0,60,0.00,CLR,,0.00,WeatherDisplay:10.37,2013-03-31 11:30:00,
2013-03-31 12:35:00,40.9,27.7,29.95,NE,47,4.6,4.6,59,0.00,CLR,,0.00,WeatherDisplay:10.37,2013-03-31 11:35:00,
2013-03-31 12:40:00,41.1,27.9,29.95,North,359,3.5,3.5,59,0.00,CLR,,0.00,WeatherDisplay:10.37,2013-03-31 11:40:00,
2013-03-31 12:45:00,41.1,28.3,29.95,East,82,2.3,2.3,60,0.00,CLR,,0.00,WeatherDisplay:10.37,2013-03-31 11:45:00,
2013-03-31 12:50:00,40.9,26.8,29.95,SE,126,5.0,5.0,57,0.00,CLR,,0.00,WeatherDisplay:10.37,2013-03-31 11:50:00,
2013-03-31 12:55:00,41.5,27.8,29.95,ENE,75,5.8,5.8,58,0.00,CLR,,0.00,WeatherDisplay:10.37,2013-03-31 11:55:00,
2013-03-31 13:00:00,42.1,27.5,29.95,SE,135,3.5,3.5,56,0.00,CLR,,0.00,WeatherDisplay:10.37,2013-03-31 12:00:00,
2013-03-31 13:05:00,41.9,27.3,29.95,NNE,18,5.8,5.8,56,0.00,CLR,,0.00,WeatherDisplay:10.37,2013-03-31 12:05:00,
2013-03-31 13:10:00,41.6,26.2,29.95,SSE,166,3.5,3.5,54,0.00,CLR,,0.00,WeatherDisplay:10.37,2013-03-31 12:10:00,
2013-03-31 13:15:00,41.6,26.2,29.95,ENE,65,3.5,3.5,54,0.00,CLR,,0.00,WeatherDisplay:10.37,2013-03-31 12:15:00,
2013-03-31 13:20:00,41.7,25.8,29.95,ESE,117,4.0,4.0,53,0.00,CLR,,0.00,WeatherDisplay:10.37,2013-03-31 12:20:00,
2013-03-31 13:25:00,41.9,26.0,29.95,SE,141,1.1,1.1,53,0.00,CLR,,0.00,WeatherDisplay:10.37,2013-03-31 12:25:00,
2013-03-31 13:30:00,42.1,26.6,29.95,ESE,122,3.0,3.0,54,0.00,CLR,,0.00,WeatherDisplay:10.37,2013-03-31 12:30:00,
2013-03-31 13:35:00,42.1,26.6,29.95,West,280,3.5,3.5,54,0.00,CLR,,0.00,WeatherDisplay:10.37,2013-03-31 12:35:00,
2013-03-31 13:40:00,42.1,25.7,29.95,ESE,108,5.8,5.8,52,0.00,CLR,,0.00,WeatherDisplay:10.37,2013-03-31 12:40:00,
2013-03-31 13:45:00,42.1,26.6,29.95,SE,129,1.1,1.7,54,0.00,CLR,,0.00,WeatherDisplay:10.37,2013-03-31 12:45:00,
2013-03-31 13:50:00,42.0,26.5,29.95,SSE,153,2.3,2.3,54,0.00,CLR,,0.00,WeatherDisplay:10.37,2013-03-31 12:50:00,
2013-03-31 13:55:00,41.9,26.4,29.95,East,79,1.1,1.1,54,0.00,CLR,,0.00,WeatherDisplay:10.37,2013-03-31 12:55:00,
2013-03-31 14:00:00,41.8,26.4,29.94,SE,141,2.3,2.3,54,0.00,CLR,,0.00,WeatherDisplay:10.37,2013-03-31 13:00:00,
2013-03-31 14:05:00,41.5,25.2,29.94,SSE,167,3.5,3.5,52,0.00,CLR,,0.00,WeatherDisplay:10.37,2013-03-31 13:05:00,
2013-03-31 14:10:00,41.5,26.1,29.94,ESE,123,8.1,0.0,54,0.00,CLR,,0.00,WeatherDisplay:10.37,2013-03-31 13:10:00,
2013-03-31 14:15:00,41.7,25.8,29.94,SE,135,2.3,2.3,53,0.00,CLR,,0.00,WeatherDisplay:10.37,2013-03-31 13:15:00,
2013-03-31 14:20:00,41.6,26.6,29.94,ENE,63,1.1,0.0,55,0.00,CLR,,0.00,WeatherDisplay:10.37,2013-03-31 13:20:00,
2013-03-31 14:25:00,41.6,26.6,29.94,SSW,212,3.5,3.5,55,0.00,CLR,,0.00,WeatherDisplay:10.37,2013-03-31 13:25:00,
2013-03-31 14:30:00,41.5,26.5,29.94,NE,47,4.0,4.0,55,0.00,CLR,,0.00,WeatherDisplay:10.37,2013-03-31 13:30:00,
2013-03-31 14:35:00,41.3,26.8,29.94,NE,46,2.3,2.3,56,0.00,CLR,,0.00,WeatherDisplay:10.37,2013-03-31 13:35:00,
2013-03-31 14:40:00,41.6,27.1,29.93,NE,56,3.5,3.5,56,0.00,CLR,,0.00,WeatherDisplay:10.37,2013-03-31 13:40:00,
2013-03-31 14:45:00,41.6,26.2,29.93,East,98,2.3,2.3,54,0.00,CLR,,0.00,WeatherDisplay:10.37,2013-03-31 13:45:00,
2013-03-31 14:50:00,41.8,26.8,29.93,West,267,3.5,3.5,55,0.00,CLR,,0.00,WeatherDisplay:10.37,2013-03-31 13:50:00,
2013-03-31 14:55:00,41.6,27.5,29.93,East,101,3.5,3.5,57,0.00,CLR,,0.00,WeatherDisplay:10.37,2013-03-31 13:55:00,
2013-03-31 15:00:00,41.5,27.8,29.93,East,95,1.1,1.1,58,0.00,CLR,,0.00,WeatherDisplay:10.37,2013-03-31 14:00:00,
2013-03-31 15:05:00,41.5,27.8,29.93,East,83,3.5,3.5,58,0.00,CLR,,0.00,WeatherDisplay:10.37,2013-03-31 14:05:00,
2013-03-31 15:10:00,41.0,28.2,29.93,SSE,152,5.0,5.0,60,0.00,CLR,,0.00,WeatherDisplay:10.37,2013-03-31 14:10:00,
2013-03-31 15:15:00,40.5,28.1,29.93,NE,53,3.5,3.5,61,0.00,CLR,,0.00,WeatherDisplay:10.37,2013-03-31 14:15:00,
2013-03-31 15:20:00,40.4,28.0,29.93,South,172,1.1,1.1,61,0.00,CLR,,0.00,WeatherDisplay:10.37,2013-03-31 14:20:00,
2013-03-31 15:25:00,40.5,27.7,29.93,South,181,2.3,2.3,60,0.00,CLR,,0.00,WeatherDisplay:10.37,2013-03-31 14:25:00,
2013-03-31 15:30:00,40.4,27.6,29.93,ENE,68,2.0,2.0,60,0.00,CLR,,0.00,WeatherDisplay:10.37,2013-03-31 14:30:00,
2013-03-31 15:35:00,40.6,27.8,29.93,NE,46,4.6,4.6,60,0.00,CLR,,0.00,WeatherDisplay:10.37,2013-03-31 14:35:00,
2013-03-31 15:40:00,40.6,27.8,29.93,NE,41,3.5,3.5,60,0.00,CLR,,0.00,WeatherDisplay:10.37,2013-03-31 14:40:00,
2013-03-31 15:45:00,40.7,27.9,29.92,ENE,75,0.0,0.2,60,0.00,CLR,,0.00,WeatherDisplay:10.37,2013-03-31 14:45:00,
2013-03-31 15:50:00,40.8,28.0,29.92,ESE,108,3.5,3.5,60,0.00,CLR,,0.00,WeatherDisplay:10.37,2013-03-31 14:50:00,
2013-03-31 15:55:00,40.7,27.9,29.92,SE,130,1.1,1.2,60,0.00,CLR,,0.00,WeatherDisplay:10.37,2013-03-31 14:55:00,
2013-03-31 16:00:00,40.5,28.5,29.92,NNE,32,1.1,1.2,62,0.00,CLR,,0.00,WeatherDisplay:10.37,2013-03-31 15:00:00,
2013-03-31 16:05:00,40.3,28.3,29.92,SSW,211,3.5,3.5,62,0.00,CLR,,0.00,WeatherDisplay:10.37,2013-03-31 15:05:00,
2013-03-31 16:10:00,40.1,28.1,29.92,SSW,212,3.5,3.5,62,0.00,CLR,,0.00,WeatherDisplay:10.37,2013-03-31 15:10:00,
2013-03-31 16:15:00,39.9,27.5,29.92,ENE,61,3.5,3.5,61,0.00,CLR,,0.00,WeatherDisplay:10.37,2013-03-31 15:15:00,
2013-03-31 16:20:00,39.9,27.9,29.92,ESE,102,1.1,0.0,62,0.00,CLR,,0.00,WeatherDisplay:10.37,2013-03-31 15:20:00,
2013-03-31 16:25:00,40.0,27.2,29.92,ESE,105,3.5,3.5,60,0.00,CLR,,0.00,WeatherDisplay:10.37,2013-03-31 15:25:00,
2013-03-31 16:30:00,40.1,27.7,29.92,South,191,6.9,6.9,61,0.00,CLR,,0.00,WeatherDisplay:10.37,2013-03-31 15:30:00,
2013-03-31 16:35:00,40.3,27.5,29.92,SE,143,3.5,3.5,60,0.00,CLR,,0.00,WeatherDisplay:10.37,2013-03-31 15:35:00,
2013-03-31 16:40:00,40.3,26.7,29.92,SSE,151,3.5,3.5,58,0.00,CLR,,0.00,WeatherDisplay:10.37,2013-03-31 15:40:00,
2013-03-31 16:45:00,40.5,26.0,29.91,ENE,70,2.3,2.3,56,0.00,CLR,,0.00,WeatherDisplay:10.37,2013-03-31 15:45:00,
2013-03-31 16:50:00,40.7,26.6,29.91,SSW,203,2.3,2.3,57,0.00,CLR,,0.00,WeatherDisplay:10.37,2013-03-31 15:50:00,
2013-03-31 16:55:00,41.0,26.5,29.91,ESE,106,3.5,3.5,56,0.00,CLR,,0.00,WeatherDisplay:10.37,2013-03-31 15:55:00,
2013-03-31 17:00:00,41.1,26.6,29.91,East,98,1.1,0.0,56,0.00,CLR,,0.00,WeatherDisplay:10.37,2013-03-31 16:00:00,
2013-03-31 17:05:00,41.0,26.1,29.91,SSE,156,2.0,2.3,55,0.00,CLR,,0.00,WeatherDisplay:10.37,2013-03-31 16:05:00,
2013-03-31 17:10:00,40.7,25.8,29.91,East,91,3.5,3.5,55,0.00,CLR,,0.00,WeatherDisplay:10.37,2013-03-31 16:10:00,
2013-03-31 17:15:00,40.5,26.0,29.91,SSE,153,3.5,3.5,56,0.00,CLR,,0.00,WeatherDisplay:10.37,2013-03-31 16:15:00,
2013-03-31 17:20:00,40.4,25.5,29.91,ESE,123,4.6,4.6,55,0.00,CLR,,0.00,WeatherDisplay:10.37,2013-03-31 16:20:00,
2013-03-31 17:25:00,40.3,25.8,29.91,SSE,162,2.3,2.3,56,0.00,CLR,,0.00,WeatherDisplay:10.37,2013-03-31 16:25:00,
2013-03-31 17:30:00,40.3,25.8,29.91,SE,124,2.3,2.3,56,0.00,CLR,,0.00,WeatherDisplay:10.37,2013-03-31 16:30:00,
2013-03-31 17:35:00,40.3,25.4,29.91,ESE,111,2.3,2.3,55,0.00,CLR,,0.00,WeatherDisplay:10.37,2013-03-31 16:35:00,
2013-03-31 17:40:00,40.2,24.9,29.91,North,349,4.6,4.6,54,0.00,CLR,,0.00,WeatherDisplay:10.37,2013-03-31 16:40:00,
2013-03-31 17:45:00,40.1,24.8,29.91,SSE,160,2.3,2.3,54,0.00,CLR,,0.00,WeatherDisplay:10.37,2013-03-31 16:45:00,
2013-03-31 17:50:00,40.0,24.7,29.91,NW,310,2.0,2.0,54,0.00,CLR,,0.00,WeatherDisplay:10.37,2013-03-31 16:50:00,
2013-03-31 17:55:00,40.1,25.2,29.91,ESE,116,5.8,5.8,55,0.00,CLR,,0.00,WeatherDisplay:10.37,2013-03-31 16:55:00,
2013-03-31 18:00:00,40.1,24.8,29.90,SE,127,3.0,3.0,54,0.00,CLR,,0.00,WeatherDisplay:10.37,2013-03-31 17:00:00,
2013-03-31 18:05:00,40.1,25.2,29.90,SSE,155,3.5,3.5,55,0.00,CLR,,0.00,WeatherDisplay:10.37,2013-03-31 17:05:00,
2013-03-31 18:10:00,40.1,24.8,29.90,ENE,70,1.1,1.2,54,0.00,CLR,,0.00,WeatherDisplay:10.37,2013-03-31 17:10:00,
2013-03-31 18:15:00,40.1,24.8,29.90,ESE,114,1.1,1.1,54,0.00,CLR,,0.00,WeatherDisplay:10.37,2013-03-31 17:15:00,
2013-03-31 18:20:00,40.1,24.8,29.90,SE,125,2.3,2.3,54,0.00,CLR,,0.00,WeatherDisplay:10.37,2013-03-31 17:20:00,
2013-03-31 18:25:00,40.1,24.3,29.90,SSW,208,3.5,3.5,53,0.00,CLR,,0.00,WeatherDisplay:10.37,2013-03-31 17:25:00,
2013-03-31 18:30:00,40.0,24.2,29.90,ENE,58,8.1,8.1,53,0.00,CLR,,0.00,WeatherDisplay:10.37,2013-03-31 17:30:00,
2013-03-31 18:35:00,39.8,24.5,29.90,WNW,282,2.3,2.3,54,0.00,CLR,,0.00,WeatherDisplay:10.37,2013-03-31 17:35:00,
2013-03-31 18:40:00,39.7,24.4,29.90,ENE,62,5.8,5.8,54,0.00,CLR,,0.00,WeatherDisplay:10.37,2013-03-31 17:40:00,
2013-03-31 18:45:00,39.6,23.9,29.90,ESE,115,4.6,4.6,53,0.00,CLR,,0.00,WeatherDisplay:10.37,2013-03-31 17:45:00,
2013-03-31 18:50:00,39.5,24.2,29.90,NW,310,1.1,1.1,54,0.00,CLR,,0.00,WeatherDisplay:10.37,2013-03-31 17:50:00,
2013-03-31 18:55:00,39.4,24.1,29.91,West,267,5.8,5.8,54,0.00,CLR,,0.00,WeatherDisplay:10.37,2013-03-31 17:55:00,
2013-03-31 19:00:00,39.3,24.5,29.90,WNW,288,4.6,4.6,55,0.00,CLR,,0.00,WeatherDisplay:10.37,2013-03-31 18:00:00,
2013-03-31 19:05:00,39.1,24.3,29.90,ESE,113,3.5,3.5,55,0.00,CLR,,0.00,WeatherDisplay:10.37,2013-03-31 18:05:00,
2013-03-31 19:11:00,39.0,24.6,29.90,ENE,68,1.1,0.0,56,0.00,CLR,,0.00,WeatherDisplay:10.37,2013-03-31 18:11:00,
2013-03-31 19:16:00,39.0,24.6,29.90,SSE,160,1.1,1.1,56,0.00,CLR,,0.00,WeatherDisplay:10.37,2013-03-31 18:16:00,
2013-03-31 19:21:00,38.9,24.9,29.91,ENE,65,1.1,1.1,57,0.00,CLR,,0.00,WeatherDisplay:10.37,2013-03-31 18:21:00,
2013-03-31 19:26:00,38.7,25.6,29.90,NNE,32,0.0,0.0,59,0.00,CLR,,0.00,WeatherDisplay:10.37,2013-03-31 18:26:00,
2013-03-31 19:32:00,38.6,25.5,29.90,NE,49,1.1,0.0,59,0.00,CLR,,0.00,WeatherDisplay:10.37,2013-03-31 18:32:00,
2013-03-31 19:37:00,38.4,26.1,29.90,SE,131,1.1,1.1,61,0.00,CLR,,0.00,WeatherDisplay:10.37,2013-03-31 18:37:00,
2013-03-31 19:42:00,38.3,26.4,29.90,East,96,0.0,0.0,62,0.00,CLR,,0.00,WeatherDisplay:10.37,2013-03-31 18:42:00,
2013-03-31 19:47:00,38.3,26.8,29.90,SE,128,1.1,1.1,63,0.00,CLR,,0.00,WeatherDisplay:10.37,2013-03-31 18:47:00,
2013-03-31 19:52:00,38.2,27.1,29.90,East,100,3.5,3.5,64,0.00,CLR,,0.00,WeatherDisplay:10.37,2013-03-31 18:52:00,
2013-03-31 19:57:00,38.1,27.4,29.90,ESE,116,2.3,2.3,65,0.00,CLR,,0.00,WeatherDisplay:10.37,2013-03-31 18:57:00,
2013-03-31 20:02:00,38.0,27.3,29.90,NE,53,1.1,1.1,65,0.00,CLR,,0.00,WeatherDisplay:10.37,2013-03-31 19:02:00,
2013-03-31 20:07:00,37.9,27.5,29.91,West,274,0.0,0.0,66,0.00,CLR,,0.00,WeatherDisplay:10.37,2013-03-31 19:07:00,
2013-03-31 20:12:00,37.9,27.9,29.91,East,96,1.1,1.1,67,0.00,CLR,,0.00,WeatherDisplay:10.37,2013-03-31 19:12:00,
2013-03-31 20:17:00,37.9,27.9,29.91,West,266,0.0,0.0,67,0.00,CLR,,0.00,WeatherDisplay:10.37,2013-03-31 19:17:00,
2013-03-31 20:22:00,37.9,28.3,29.91,ESE,106,2.3,2.3,68,0.00,CLR,,0.00,WeatherDisplay:10.37,2013-03-31 19:22:00,
2013-03-31 20:27:00,37.8,28.5,29.91,SE,130,5.0,5.0,69,0.00,CLR,,0.00,WeatherDisplay:10.37,2013-03-31 19:27:00,
2013-03-31 20:32:00,37.7,28.4,29.91,East,79,3.5,3.5,69,0.00,CLR,,0.00,WeatherDisplay:10.37,2013-03-31 19:32:00,
2013-03-31 20:37:00,37.7,28.8,29.91,ESE,106,1.1,1.1,70,0.00,CLR,,0.00,WeatherDisplay:10.37,2013-03-31 19:37:00,
2013-03-31 20:42:00,37.7,28.8,29.91,ESE,103,1.1,1.1,70,0.00,CLR,,0.00,WeatherDisplay:10.37,2013-03-31 19:42:00,
2013-03-31 20:47:00,37.6,28.7,29.91,SSE,150,1.1,1.1,70,0.00,CLR,,0.00,WeatherDisplay:10.37,2013-03-31 19:47:00,
2013-03-31 20:52:00,37.5,28.6,29.91,West,277,1.1,1.1,70,0.00,CLR,,0.00,WeatherDisplay:10.37,2013-03-31 19:52:00,
2013-03-31 20:57:00,37.5,28.6,29.91,East,94,3.5,3.5,70,0.00,CLR,,0.00,WeatherDisplay:10.37,2013-03-31 19:57:00,
2013-03-31 21:02:00,37.4,28.5,29.91,SSW,193,0.0,0.2,70,0.00,CLR,,0.00,WeatherDisplay:10.37,2013-03-31 20:02:00,
2013-03-31 21:07:00,37.3,28.8,29.91,NNW,328,6.9,0.0,71,0.00,CLR,,0.00,WeatherDisplay:10.37,2013-03-31 20:07:00,
2013-03-31 21:12:00,37.2,28.7,29.91,SE,131,3.5,3.5,71,0.00,CLR,,0.00,WeatherDisplay:10.37,2013-03-31 20:12:00,
2013-03-31 21:17:00,37.1,28.9,29.91,East,91,2.3,0.0,72,0.00,CLR,,0.00,WeatherDisplay:10.37,2013-03-31 20:17:00,
2013-03-31 21:22:00,37.0,28.8,29.91,ENE,78,0.0,0.0,72,0.00,CLR,,0.00,WeatherDisplay:10.37,2013-03-31 20:22:00,
2013-03-31 21:27:00,36.8,28.6,29.91,East,95,1.0,1.0,72,0.00,CLR,,0.00,WeatherDisplay:10.37,2013-03-31 20:27:00,
2013-03-31 21:32:00,36.7,28.9,29.91,West,276,1.0,1.0,73,0.00,CLR,,0.00,WeatherDisplay:10.37,2013-03-31 20:32:00,
2013-03-31 21:37:00,36.5,28.7,29.91,SSW,200,1.1,1.1,73,0.00,CLR,,0.00,WeatherDisplay:10.37,2013-03-31 20:37:00,
2013-03-31 21:42:00,36.4,28.9,29.91,NNE,23,1.1,0.0,74,0.00,CLR,,0.00,WeatherDisplay:10.37,2013-03-31 20:42:00,
2013-03-31 21:47:00,36.2,29.0,29.91,East,96,0.0,0.0,75,0.00,CLR,,0.00,WeatherDisplay:10.37,2013-03-31 20:47:00,
2013-03-31 21:52:00,36.0,28.8,29.91,NW,321,4.0,4.0,75,0.00,CLR,,0.00,WeatherDisplay:10.37,2013-03-31 20:52:00,
2013-03-31 21:57:00,35.7,28.9,29.91,WSW,238,1.1,1.1,76,0.00,CLR,,0.00,WeatherDisplay:10.37,2013-03-31 20:57:00,
2013-03-31 22:02:00,35.4,28.9,29.91,WNW,285,0.0,0.0,77,0.00,CLR,,0.00,WeatherDisplay:10.37,2013-03-31 21:02:00,
2013-03-31 22:07:00,35.1,28.9,29.91,SSE,158,0.0,0.0,78,0.00,CLR,,0.00,WeatherDisplay:10.37,2013-03-31 21:07:00,
2013-03-31 22:12:00,35.0,29.1,29.91,ENE,65,0.0,0.0,79,0.00,CLR,,0.00,WeatherDisplay:10.37,2013-03-31 21:12:00,
2013-03-31 22:17:00,34.7,29.2,29.91,ESE,105,0.0,0.0,80,0.00,CLR,,0.00,WeatherDisplay:10.37,2013-03-31 21:17:00,
2013-03-31 22:22:00,34.6,29.4,29.91,West,270,3.5,3.5,81,0.00,CLR,,0.00,WeatherDisplay:10.37,2013-03-31 21:22:00,
2013-03-31 22:27:00,34.7,29.5,29.90,East,95,0.0,0.1,81,0.00,CLR,,0.00,WeatherDisplay:10.37,2013-03-31 21:27:00,
2013-03-31 22:32:00,34.8,29.6,29.90,ESE,113,1.0,1.0,81,0.00,CLR,,0.00,WeatherDisplay:10.37,2013-03-31 21:32:00,
2013-03-31 22:37:00,35.0,29.8,29.90,SE,126,0.0,0.0,81,0.00,CLR,,0.00,WeatherDisplay:10.37,2013-03-31 21:37:00,
2013-03-31 22:42:00,35.1,29.9,29.90,NE,41,2.3,2.3,81,0.00,CLR,,0.00,WeatherDisplay:10.37,2013-03-31 21:42:00,
2013-03-31 22:47:00,35.1,29.9,29.90,ENE,66,3.5,3.5,81,0.00,CLR,,0.00,WeatherDisplay:10.37,2013-03-31 21:47:00,
2013-03-31 22:52:00,34.9,29.7,29.90,ENE,61,1.1,0.0,81,0.00,CLR,,0.00,WeatherDisplay:10.37,2013-03-31 21:52:00,
2013-03-31 22:57:00,34.7,29.5,29.90,ESE,113,0.0,0.9,81,0.00,CLR,,0.00,WeatherDisplay:10.37,2013-03-31 21:57:00,
2013-03-31 23:03:00,34.5,29.3,29.90,NW,307,4.0,4.0,81,0.00,CLR,,0.00,WeatherDisplay:10.37,2013-03-31 22:03:00,
2013-03-31 23:08:00,34.4,29.2,29.90,NE,46,1.1,1.1,81,0.00,CLR,,0.00,WeatherDisplay:10.37,2013-03-31 22:08:00,
2013-03-31 23:13:00,34.2,29.0,29.90,East,96,0.0,0.0,81,0.00,CLR,,0.00,WeatherDisplay:10.37,2013-03-31 22:13:00,
2013-03-31 23:18:00,34.0,28.8,29.90,ESE,108,1.1,0.0,81,0.00,CLR,,0.00,WeatherDisplay:10.37,2013-03-31 22:18:00,
2013-03-31 23:23:00,33.7,28.8,29.90,South,187,0.0,0.0,82,0.00,CLR,,0.00,WeatherDisplay:10.37,2013-03-31 22:23:00,
2013-03-31 23:28:00,33.6,28.7,29.90,ESE,106,0.0,0.0,82,0.00,CLR,,0.00,WeatherDisplay:10.37,2013-03-31 22:28:00,
2013-03-31 23:33:00,33.5,28.6,29.90,ENE,72,0.0,0.0,82,0.00,CLR,,0.00,WeatherDisplay:10.37,2013-03-31 22:33:00,
2013-03-31 23:38:00,33.3,28.4,29.89,West,276,0.0,0.0,82,0.00,CLR,,0.00,WeatherDisplay:10.37,2013-03-31 22:38:00,
2013-03-31 23:43:00,33.1,28.2,29.89,ESE,108,0.0,0.0,82,0.00,CLR,,0.00,WeatherDisplay:10.37,2013-03-31 22:43:00,
2013-03-31 23:48:00,33.1,28.2,29.89,NW,309,0.0,0.3,82,0.00,CLR,,0.00,WeatherDisplay:10.37,2013-03-31 22:48:00,
2013-03-31 23:53:00,33.1,28.2,29.89,WSW,245,0.0,0.0,82,0.00,CLR,,0.00,WeatherDisplay:10.37,2013-03-31 22:53:00,
2013-03-31 23:58:00,32.9,28.0,29.89,WSW,248,0.0,0.0,82,0.00,CLR,,0.00,WeatherDisplay:10.37,2013-03-31 22:58:00,